Flag for Germany Weather past 2 weeks in Dorsten, North Rhine-Westphalia, Germany

Now
44 °F

Drizzle. Overcast.


Feels Like: 40 °F
Forecast: 46 / 55 °F
Wind: 7 mph from Southwest

Location: Essen

Current Time: Oct 22, 2014 at 2:55:44 AM

Latest Report: Oct 22, 2014 at 2:00 AM


Visibility: 15 mi

Pressure: 29.84 "Hg

Humidity: 93%

Dew point: 42 °F

Location of DorstenLocation

Historic Weather in Dorsten — Graph

°F

Dorsten temperature yesterday

Maximum temperature yesterday: 55 °F (at 12:00 PM)
Minimum temperature yesterday: 44 °F (at 11:00 PM)
Average temperature yesterday: 51 °F

Past Weeks' High & Low Weather Summary

 TemperatureHumidityPressure
High73 °F (Oct 19, 3:00 PM)100% (Oct 11, 7:00 AM)30.10 "Hg (Oct 11, 7:00 AM)
Low44 °F (Oct 22, 2:00 AM)55% (Oct 14, 2:00 PM)29.47 "Hg (Oct 21, 4:00 PM)
Average57 °F85%29.82 "Hg
* Reported Oct 7 2:00 AM — Oct 22 2:00 AM, Dorsten, Weather by CustomWeather, © 2014

Note: Actual official high and low records may vary slightly from our data, if they occured in-between our weather recording intervals... More about our weather records

Advertising

Dorsten weather history for previous 24 hours

 ConditionsComfort  
Time TempWeatherWind HumidityBarometerVisibility
2:00 AM
Oct 22
44 °FDrizzle. Overcast.7 mph93%29.84 "Hg15 mi
1:00 AM45 °FOvercast.6 mph88%29.82 "Hg28 mi
12:00 AM45 °FOvercast.6 mph85%29.78 "Hg31 mi
11:00 PM
Oct 21
44 °FLight rain. Low clouds.5 mph90%29.75 "Hg28 mi
10:00 PM46 °FOvercast.5 mph91%29.70 "Hg19 mi
9:00 PM47 °FLow clouds.6 mph83%29.67 "Hg25 mi
8:00 PM48 °FOvercast.5 mph89%29.64 "Hg18 mi
7:00 PM46 °FDrizzle. Low clouds.7 mph93%29.60 "Hg17 mi
6:00 PM51 °FDrizzle. Overcast.6 mph92%29.56 "Hg19 mi
5:00 PM52 °FLight rain. Low clouds.8 mph94%29.50 "Hg6 mi
4:00 PM53 °FRain. Low clouds.7 mph96%29.47 "Hg2 mi
3:00 PM52 °FLow clouds.5 mph96%29.54 "Hg17 mi
2:00 PM52 °FDrizzle. Low clouds.7 mph97%29.59 "Hg4 mi
1:00 PM52 °FLight rain. Low clouds.7 mph93%29.64 "Hg5 mi
12:00 PM55 °FOvercast.5 mph82%29.67 "Hg28 mi
11:00 AM54 °FOvercast.N/A81%29.70 "Hg28 mi
10:00 AM53 °FOvercast.N/A83%29.75 "Hg28 mi
9:00 AM53 °FOvercast.5 mph88%29.78 "Hg22 mi
8:00 AM53 °FOvercast.3 mph92%29.79 "Hg17 mi
7:00 AM52 °FOvercast.5 mph93%29.82 "Hg16 mi
6:00 AM52 °FOvercast.5 mph93%29.83 "Hg15 mi
5:00 AM52 °FOvercast.5 mph92%29.86 "Hg16 mi
4:00 AM52 °FOvercast.6 mph94%29.89 "Hg12 mi
3:00 AM52 °FClear.6 mph95%29.90 "Hg9 mi
2:00 AM52 °FPassing clouds.5 mph96%29.92 "Hg8 mi
Weather by CustomWeather, © 2014

See weather overviewHow to use our weather pages